When you browse on this site, cookies collect data to enhance your experience and personalize the content and advertising you see.
Visit our Privacy Policy to learn more. By continuing to use the site, you agree to this use of cookies and data.
  • In Austria
  • List of Countries
  • For 7 days
  • Water Temperature
  • Satellite Maps
  • Weather Map
  • News
  • Weather Widgets
  • user-avatar
    Login

    Hourly Weather Biskira

    Today, 21 November, Wednesday

    Time Temperature Precipitation Wind Pressure Humidity
    00:00 +16°C° 0 mm 2 mps 752 mmHg 55%
    01:00 +16°C° 0 mm 1 mps 752 mmHg 56%
    02:00 +15°C° 0 mm 1 mps 752 mmHg 57%
    03:00 +15°C° 0 mm 1 mps 752 mmHg 58%
    04:00 +15°C° 0 mm 1 mps 752 mmHg 58%
    05:00 +14°C° 0 mm 1 mps 753 mmHg 59%
    06:00 +14°C° 0 mm 1 mps 753 mmHg 60%
    07:00 +16°C° 0 mm 1 mps 753 mmHg 54%
    08:00 +18°C° 0 mm 1 mps 754 mmHg 49%
    09:00 +20°C° 0 mm 1 mps 754 mmHg 43%
    10:00 +20°C° 0 mm 1 mps 754 mmHg 40%
    11:00 +21°C° 0 mm 1 mps 754 mmHg 38%
    12:00 +22°C° 0 mm 1 mps 754 mmHg 35%
    13:00 +22°C° 0 mm 1 mps 754 mmHg 35%
    14:00 +22°C° 0 mm 1 mps 754 mmHg 34%
    15:00 +23°C° 0 mm 2 mps 754 mmHg 34%
    16:00 +21°C° 0 mm 2 mps 754 mmHg 37%
    17:00 +21°C° 0 mm 1 mps 755 mmHg 40%
    18:00 +20°C° 0 mm 1 mps 755 mmHg 43%
    19:00 +19°C° 0 mm 1 mps 755 mmHg 44%
    20:00 +19°C° 0 mm 1 mps 756 mmHg 45%
    21:00 +19°C° 0 mm 1 mps 756 mmHg 45%
    22:00 +18°C° 0 mm 2 mps 756 mmHg 46%
    23:00 +17°C° 0 mm 2 mps 756 mmHg 47%

    Tomorrow, 22 November, Thursday

    Time Temperature Precipitation Wind Pressure Humidity
    00:00 +17°C° 0 mm 2 mps 756 mmHg 47%
    01:00 +17°C° 0 mm 2 mps 756 mmHg 48%
    02:00 +17°C° 0 mm 2 mps 756 mmHg 48%
    03:00 +17°C° 0 mm 2 mps 756 mmHg 49%
    04:00 +16°C° 0 mm 2 mps 756 mmHg 49%
    05:00 +16°C° 0 mm 2 mps 756 mmHg 50%
    06:00 +16°C° 0 mm 2 mps 756 mmHg 50%
    07:00 +17°C° 0 mm 2 mps 756 mmHg 46%
    08:00 +18°C° 0 mm 2 mps 756 mmHg 42%
    09:00 +20°C° 0 mm 2 mps 757 mmHg 38%
    10:00 +20°C° 0 mm 2 mps 756 mmHg 35%
    11:00 +21°C° 0 mm 3 mps 756 mmHg 33%
    12:00 +22°C° 0 mm 3 mps 756 mmHg 30%
    13:00 +22°C° 0 mm 3 mps 755 mmHg 30%
    14:00 +22°C° 0 mm 3 mps 755 mmHg 30%
    15:00 +22°C° 0 mm 3 mps 755 mmHg 30%
    16:00 +21°C° 0 mm 3 mps 755 mmHg 33%
    17:00 +20°C° 0 mm 3 mps 755 mmHg 36%
    18:00 +19°C° 0 mm 3 mps 756 mmHg 39%
    19:00 +19°C° 0 mm 3 mps 756 mmHg 40%
    20:00 +18°C° 0 mm 3 mps 756 mmHg 41%
    21:00 +18°C° 0 mm 3 mps 756 mmHg 42%
    22:00 +17°C° 0 mm 3 mps 756 mmHg 42%
    23:00 +17°C° 0 mm 2 mps 756 mmHg 42%

    Day after tomorrow, 23 November, Friday

    Time Temperature Precipitation Wind Pressure Humidity
    00:00 +17°C° 0 mm 2 mps 756 mmHg 43%
    01:00 +16°C° 0 mm 2 mps 756 mmHg 43%
    02:00 +16°C° 0 mm 2 mps 756 mmHg 43%
    03:00 +16°C° 0 mm 2 mps 756 mmHg 43%
    04:00 +15°C° 0 mm 2 mps 756 mmHg 44%
    05:00 +15°C° 0 mm 2 mps 756 mmHg 45%
    06:00 +15°C° 0 mm 1 mps 756 mmHg 45%
    07:00 +16°C° 0 mm 2 mps 756 mmHg 42%
    08:00 +18°C° 0 mm 2 mps 756 mmHg 38%
    09:00 +19°C° 0 mm 2 mps 756 mmHg 34%
    10:00 +20°C° 0 mm 2 mps 756 mmHg 33%
    11:00 +21°C° 0 mm 2 mps 756 mmHg 32%
    12:00 +21°C° 0 mm 2 mps 755 mmHg 30%
    13:00 +21°C° 0 mm 2 mps 755 mmHg 30%
    14:00 +23°C° 0 mm 2 mps 754 mmHg 30%
    15:00 +23°C° 0 mm 2 mps 754 mmHg 31%
    16:00 +21°C° 0 mm 2 mps 754 mmHg 33%
    17:00 +20°C° 0 mm 2 mps 754 mmHg 36%
    18:00 +19°C° 0 mm 2 mps 755 mmHg 39%
    19:00 +19°C° 0 mm 2 mps 755 mmHg 40%
    20:00 +18°C° 0 mm 2 mps 755 mmHg 40%
    21:00 +18°C° 0 mm 2 mps 755 mmHg 41%
    22:00 +19°C° 0 mm 1 mps 755 mmHg 43%
    23:00 +18°C° 0 mm 1 mps 755 mmHg 44%

    24 November, Saturday

    Time Temperature Precipitation Wind Pressure Humidity
    00:00 +18°C° 0 mm 1 mps 755 mmHg 46%
    01:00 +18°C° 0 mm 1 mps 755 mmHg 46%
    02:00 +16°C° 0 mm 1 mps 754 mmHg 45%
    03:00 +16°C° 0 mm 1 mps 754 mmHg 45%
    04:00 +16°C° 0 mm 1 mps 754 mmHg 45%
    05:00 +16°C° 0 mm 1 mps 754 mmHg 46%
    06:00 +16°C° 0 mm 1 mps 755 mmHg 46%
    07:00 +19°C° 0 mm 1 mps 755 mmHg 42%
    08:00 +20°C° 0 mm 1 mps 755 mmHg 38%
    09:00 +21°C° 0 mm 1 mps 755 mmHg 34%
    10:00 +22°C° 0 mm 1 mps 755 mmHg 33%
    11:00 +23°C° 0 mm 1 mps 754 mmHg 32%
    12:00 +23°C° 0 mm 2 mps 754 mmHg 30%
    13:00 +24°C° 0 mm 2 mps 753 mmHg 30%
    14:00 +24°C° 0 mm 2 mps 753 mmHg 31%
    15:00 +24°C° 0 mm 2 mps 752 mmHg 31%
    16:00 +22°C° 0 mm 3 mps 753 mmHg 33%
    17:00 +22°C° 0 mm 3 mps 753 mmHg 35%
    18:00 +21°C° 0 mm 3 mps 753 mmHg 38%
    19:00 +20°C° 0.2 mm 3 mps 753 mmHg 43%
    20:00 +20°C° 0.2 mm 3 mps 753 mmHg 48%
    21:00 +19°C° 0.2 mm 3 mps 754 mmHg 52%
    22:00 +19°C° 0.4 mm 3 mps 753 mmHg 59%
    23:00 +18°C° 0.4 mm 3 mps 753 mmHg 65%

    25 November, Sunday

    Time Temperature Precipitation Wind Pressure Humidity
    00:00 +18°C° 0.4 mm 2 mps 753 mmHg 71%
    01:00 +17°C° 0.5 mm 2 mps 752 mmHg 74%
    02:00 +17°C° 0.5 mm 2 mps 752 mmHg 77%
    03:00 +18°C° 0.5 mm 1 mps 752 mmHg 80%
    04:00 +18°C° 0.4 mm 1 mps 752 mmHg 81%
    05:00 +18°C° 0.4 mm 1 mps 752 mmHg 83%
    06:00 +16°C° 0.4 mm 1 mps 752 mmHg 84%
    07:00 +18°C° 0.1 mm 1 mps 752 mmHg 84%
    08:00 +18°C° 0.1 mm 1 mps 752 mmHg 83%
    09:00 +18°C° 0.1 mm 1 mps 753 mmHg 83%
    10:00 +18°C° 0 mm 2 mps 752 mmHg 77%
    11:00 +19°C° 0 mm 2 mps 752 mmHg 71%
    12:00 +20°C° 0 mm 3 mps 752 mmHg 65%
    13:00 +20°C° 0 mm 3 mps 752 mmHg 60%
    14:00 +21°C° 0 mm 3 mps 751 mmHg 55%
    15:00 +21°C° 0 mm 3 mps 751 mmHg 50%
    16:00 +20°C° 0 mm 3 mps 751 mmHg 52%
    17:00 +19°C° 0 mm 3 mps 752 mmHg 54%
    18:00 +19°C° 0 mm 2 mps 752 mmHg 55%
    19:00 +18°C° 0 mm 2 mps 752 mmHg 56%
    20:00 +18°C° 0 mm 2 mps 753 mmHg 56%
    21:00 +17°C° 0 mm 2 mps 753 mmHg 57%
    22:00 +17°C° 0 mm 2 mps 753 mmHg 58%
    23:00 +17°C° 0 mm 2 mps 753 mmHg 60%

    26 November, Monday

    Time Temperature Precipitation Wind Pressure Humidity
    00:00 +17°C° 0 mm 3 mps 752 mmHg 61%
    01:00 +16°C° 0 mm 3 mps 752 mmHg 64%
    02:00 +16°C° 0 mm 3 mps 752 mmHg 66%
    03:00 +16°C° 0 mm 3 mps 752 mmHg 68%
    04:00 +16°C° 0 mm 3 mps 752 mmHg 70%
    05:00 +14°C° 0 mm 3 mps 753 mmHg 71%
    06:00 +14°C° 0 mm 3 mps 753 mmHg 72%
    07:00 +15°C° 0 mm 4 mps 753 mmHg 67%
    08:00 +17°C° 0 mm 4 mps 753 mmHg 62%
    09:00 +19°C° 0 mm 4 mps 753 mmHg 58%
    10:00 +20°C° 0 mm 4 mps 753 mmHg 55%
    11:00 +21°C° 0 mm 4 mps 753 mmHg 52%
    12:00 +22°C° 0 mm 5 mps 752 mmHg 48%
    13:00 +22°C° 0 mm 4 mps 752 mmHg 48%
    14:00 +22°C° 0 mm 4 mps 752 mmHg 47%
    15:00 +22°C° 0 mm 4 mps 752 mmHg 47%
    16:00 +21°C° 0 mm 4 mps 752 mmHg 51%
    17:00 +21°C° 0 mm 3 mps 752 mmHg 54%
    18:00 +20°C° 0 mm 2 mps 753 mmHg 58%
    19:00 +19°C° 0 mm 2 mps 753 mmHg 59%
    20:00 +19°C° 0 mm 2 mps 753 mmHg 61%
    21:00 +19°C° 0 mm 2 mps 754 mmHg 62%
    22:00 +18°C° 0 mm 2 mps 754 mmHg 63%
    23:00 +18°C° 0 mm 2 mps 754 mmHg 65%
    Show more